カタログに戻る

SL-8 R/B

運用中LEO
NORAD 14402·ROCKET BODY·🇷🇺 Russia

打ち上げ Oct 12, 1983 から Plesetsk Cosmodrome

Loading…

次のパス (今後24時間)

TLE

最新Source: Space-Track

元期: Sep 14, 2026, 04:37 UTC

1 14402U 83103B   26257.19304057  .00000119  00000-0  48519-4 0  9999
2 14402  74.0456 175.9598 0027602 265.8311  93.9688 14.37433316246725

AllMySatでSL-8 R/Bをリアルタイム追跡

Download on the App Store